Location: Unspecified
(0.0000°N, 0.0000°E)
Time: 21:37:16
(UTC+00:00)

Transit 4A - Pass Details

Date: 30 April 2024
Orbit: 871 x 971 km, 66.8° (Epoch: 22 May)

Event Time Altitude Azimuth Distance (km) Brightness Sun altitude
Rises 09:16:27 0° 210° (SSW) 3,618 10.7 47.6°
Reaches altitude 10° 09:19:06 10° 215° (SW) 2,658 10.1 48.2°
Maximum altitude 09:25:02 50° 289° (WNW) 1,167 8.7 49.5°
Drops below altitude 10° 09:30:49 10° 3° (N) 2,580 10.6 50.9°
Sets 09:33:22 0° 9° (N) 3,504 11.2 51.4°
